Le nostre stazioni meteo in Italia

Pubblicità
Il mio iltempo24.it
Pescara, Italia (16230): Temperatura & dewpoint: 19.05.2019 08:00:00 - 25.05.2019 08:00:00 (CEST)Pescara, Italia (16230): velocità del vento: 19.05.2019 08:00:00 - 25.05.2019 08:00:00 (CEST)Pescara, Italia (16230): direzione del vento: 19.05.2019 08:00:00 - 25.05.2019 08:00:00 (CEST)Pescara, Italia (16230): reduced air pressure: 19.05.2019 08:00:00 - 25.05.2019 08:00:00 (CEST)Pescara, Italia (16230): visibility: 19.05.2019 08:00:00 - 25.05.2019 08:00:00 (CEST)Pescara, Italia (16230): precipitazioni: 19.05.2019 08:00:00 - 25.05.2019 08:00:00 (CEST)
Data & Tempo tt [°C] td [°C] ff [km/h] ff [kn] dd ppp [hPa] vv [km] rr [mm]
25.05.2019 08:00:00 - - - - - - - -
25.05.2019 07:00:00 14,0 12,0 8 4 SSO - 10 -
25.05.2019 06:00:00 12,0 11,0 9 5 SO - 10 -
25.05.2019 05:00:00 12,6 11,2 5 3 OSO 1013,8 10 0,0
25.05.2019 04:00:00 13,0 11,0 8 4 SSO - 10 -
25.05.2019 03:00:00 13,0 12,0 9 5 SSO - 10 -
25.05.2019 02:00:00 14,2 13,2 4 2 SSO 1013,7 10 -
25.05.2019 01:00:00 16,0 15,0 5 3 SO - 10 -
25.05.2019 00:00:00 16,0 14,0 8 4 SSO - 10 -
24.05.2019 23:00:00 18,5 15,0 2 1 N 1013,8 20 0,0
24.05.2019 22:00:00 20,0 16,0 8 4 OSO - 10 -
24.05.2019 21:00:00 19,0 15,0 8 4 SSO - 10 -
24.05.2019 20:00:00 20,3 14,6 4 2 ENE 1013,1 12 -
24.05.2019 19:00:00 21,0 15,0 8 4 NNE - 10 -
24.05.2019 18:00:00 23,0 13,0 5 3 - - 10 -
24.05.2019 17:00:00 21,9 13,7 4 2 ENE 1013,4 12 0,0
24.05.2019 16:00:00 22,0 13,0 11 6 E - 10 -
24.05.2019 15:00:00 - - - - - - - -
24.05.2019 14:00:00 22,4 13,2 18 10 ENE 1013,8 30 -
24.05.2019 13:00:00 23,0 13,0 16 9 ENE - 10 -
24.05.2019 12:00:00 23,0 14,0 18 10 ENE - 10 -
24.05.2019 11:00:00 23,1 12,6 11 6 NE 1014,4 20 0,0
24.05.2019 10:00:00 22,0 13,0 8 4 OSO - 10 -
24.05.2019 09:00:00 20,0 12,0 9 5 SSO - 10 -
24.05.2019 08:00:00 17,4 11,7 8 4 OSO 1015,0 30 -
24.05.2019 07:00:00 13,0 12,0 8 4 SO - 10 -
24.05.2019 06:00:00 11,0 10,0 5 3 OSO - 10 -
24.05.2019 05:00:00 11,0 9,9 5 3 SO 1014,6 10 0,0
24.05.2019 04:00:00 11,0 10,0 5 3 SO - 10 -
24.05.2019 03:00:00 13,0 11,0 8 4 OSO - 10 -
24.05.2019 02:00:00 13,2 11,3 9 5 SO 1015,3 10 -
24.05.2019 01:00:00 13,0 11,0 9 5 SO - 10 -
24.05.2019 00:00:00 13,0 12,0 9 5 SSO - 10 -
23.05.2019 23:00:00 14,8 12,6 2 1 N 1015,4 20 0,0
23.05.2019 22:00:00 17,0 14,0 5 3 SO - 10 -
23.05.2019 21:00:00 19,0 14,0 4 2 - - 10 -
23.05.2019 20:00:00 19,8 13,6 2 1 N 1015,5 20 -
23.05.2019 19:00:00 21,0 14,0 9 5 NNE - 10 -
23.05.2019 18:00:00 22,0 11,0 9 5 NE - 10 -
23.05.2019 17:00:00 22,0 11,7 11 6 NE 1015,2 20 0,0
23.05.2019 16:00:00 22,0 13,0 13 7 ENE - 10 -
23.05.2019 15:00:00 - - - - - - - -
23.05.2019 14:00:00 21,8 13,1 16 9 NE 1015,8 45 -
23.05.2019 13:00:00 22,0 11,0 16 9 NE - 10 -
23.05.2019 12:00:00 22,0 14,0 11 6 NNE - 10 -
23.05.2019 11:00:00 20,2 12,7 9 5 NNE 1016,9 40 0,0
23.05.2019 10:00:00 21,0 12,0 4 2 - - 10 -
23.05.2019 09:00:00 19,0 13,0 4 2 - - 10 -
23.05.2019 08:00:00 16,6 12,0 8 4 SO 1016,4 30 -
23.05.2019 07:00:00 14,0 12,0 5 3 SO - 10 -
23.05.2019 06:00:00 12,0 11,0 9 5 SO - 10 -
23.05.2019 05:00:00 12,2 10,9 4 2 N 1015,8 20 0,0
23.05.2019 04:00:00 12,0 11,0 2 1 - - 10 -
23.05.2019 03:00:00 12,0 11,0 5 3 SSO - 10 -
23.05.2019 02:00:00 13,0 11,2 5 3 SO 1016,4 30 -
23.05.2019 01:00:00 14,0 12,0 8 4 SO - 10 -
23.05.2019 00:00:00 15,0 12,0 5 3 OSO - 10 -
22.05.2019 23:00:00 16,3 12,5 5 3 SO 1016,8 15 0,0
22.05.2019 22:00:00 17,0 13,0 4 2 - - 10 -
22.05.2019 21:00:00 18,0 13,0 2 1 - - 10 -
22.05.2019 20:00:00 18,1 13,1 5 3 NE 1015,5 20 -
22.05.2019 19:00:00 20,0 13,0 15 8 NE - 10 -
22.05.2019 18:00:00 21,0 12,0 15 8 ENE - 10 -
22.05.2019 17:00:00 21,2 10,6 18 10 ENE 1015,0 30 0,0
22.05.2019 16:00:00 21,0 11,0 21 11 ENE - 10 -
22.05.2019 15:00:00 21,0 12,0 21 11 ENE - 10 -
22.05.2019 14:00:00 21,2 11,7 21 11 ENE 1015,5 25 -
22.05.2019 13:00:00 21,0 12,0 18 10 E - 10 -
22.05.2019 12:00:00 21,0 11,0 21 11 ENE - 10 -
22.05.2019 11:00:00 21,1 10,0 16 9 ENE 1015,8 30 0,0
22.05.2019 10:00:00 20,0 9,0 4 2 - - 10 -
22.05.2019 09:00:00 18,0 9,0 5 3 ONO - 10 -
22.05.2019 08:00:00 18,4 10,0 8 4 ONO 1015,2 10 -
22.05.2019 07:00:00 18,0 9,0 9 5 O - 10 -
22.05.2019 06:00:00 16,0 8,0 11 6 O - 10 -
22.05.2019 05:00:00 17,2 8,0 15 8 SO 1014,3 10 0,0
22.05.2019 04:00:00 17,0 8,0 18 10 SO - 10 -
22.05.2019 03:00:00 18,0 8,0 18 10 SO - 10 -
22.05.2019 02:00:00 17,0 8,0 8 4 OSO 1014,1 10 -
22.05.2019 01:00:00 18,0 8,0 16 9 SO - 10 -
22.05.2019 00:00:00 18,0 8,0 18 10 SO - 10 -
21.05.2019 23:00:00 18,6 8,1 18 10 SO 1013,6 10 0,0
21.05.2019 22:00:00 19,0 9,0 21 11 SO - 10 -
21.05.2019 21:00:00 20,0 8,0 13 7 SO - 10 -
21.05.2019 20:00:00 21,3 8,6 18 10 SO 1012,2 25 -
21.05.2019 19:00:00 22,0 9,0 22 12 SO - 10 -
21.05.2019 18:00:00 21,0 11,0 13 7 NNE - 10 -
21.05.2019 17:00:00 21,8 10,3 11 6 NNE 1012,2 25 0,0
21.05.2019 16:00:00 21,0 10,0 11 6 ENE - 10 -
21.05.2019 15:00:00 22,0 12,0 13 7 NE - 10 -
21.05.2019 14:00:00 21,6 11,4 13 7 NE 1011,9 20 -
21.05.2019 13:00:00 21,0 12,0 15 8 ENE - 10 -
21.05.2019 12:00:00 20,0 12,0 8 4 - - 10 -
21.05.2019 11:00:00 20,8 9,8 13 7 SO 1011,1 10 0,0
21.05.2019 10:00:00 21,0 9,0 21 11 SO - 10 -
21.05.2019 09:00:00 19,0 9,0 13 7 SO - 10 -
21.05.2019 08:00:00 19,0 8,7 4 2 N 1010,1 30 -
21.05.2019 07:00:00 16,0 8,0 4 2 SO - 10 -
21.05.2019 06:00:00 15,0 7,0 9 5 O - 10 -
21.05.2019 05:00:00 16,3 6,4 11 6 OSO 1009,4 10 0,0
21.05.2019 04:00:00 16,0 6,0 11 6 OSO - 10 -
21.05.2019 03:00:00 16,0 6,0 8 4 OSO - 10 -
21.05.2019 02:00:00 16,3 5,7 11 6 OSO 1010,0 10 -
21.05.2019 01:00:00 17,0 6,0 18 10 SO - 10 -
21.05.2019 00:00:00 16,0 6,0 22 12 SSO - 10 -
20.05.2019 23:00:00 15,9 6,1 18 10 SO 1009,7 20 0,0
20.05.2019 22:00:00 16,0 7,0 16 9 SO - 10 -
20.05.2019 21:00:00 18,0 6,0 16 9 SO - 10 -
20.05.2019 20:00:00 18,6 6,0 21 11 SO 1008,5 30 -
20.05.2019 19:00:00 20,0 7,0 28 15 SO - 10 -
20.05.2019 18:00:00 20,0 7,0 29 16 SO - 10 -
20.05.2019 17:00:00 20,3 7,2 26 14 SO 1008,5 30 0,0
20.05.2019 16:00:00 21,0 7,0 34 18 SSO - 10 -
20.05.2019 15:00:00 21,0 9,0 34 18 SO - 10 -
20.05.2019 14:00:00 21,9 5,0 9 5 OSO 1007,8 30 -
20.05.2019 13:00:00 22,0 8,0 24 13 SO - 10 -
20.05.2019 12:00:00 21,0 7,0 35 19 SSO - 10 -
20.05.2019 11:00:00 20,4 7,5 29 16 SSO 1007,9 30 0,0
20.05.2019 10:00:00 20,0 7,0 29 16 SO - 10 -
20.05.2019 09:00:00 19,0 6,0 26 14 SO - 10 -
20.05.2019 08:00:00 17,3 5,7 29 16 SO 1006,9 30 -
20.05.2019 07:00:00 16,0 5,0 18 10 SO - 10 -
20.05.2019 06:00:00 15,0 6,0 21 11 SO - 10 -
20.05.2019 05:00:00 16,7 5,5 28 15 SO 1006,1 15 0,0
20.05.2019 04:00:00 16,0 6,0 21 11 SO - 10 -
20.05.2019 03:00:00 16,0 6,0 18 10 SO - 10 -
20.05.2019 02:00:00 15,9 5,6 16 9 SO 1006,3 30 -
20.05.2019 01:00:00 16,0 6,0 22 12 SO - 10 -
20.05.2019 00:00:00 16,0 7,0 18 10 SO - 10 -
19.05.2019 23:00:00 15,9 7,1 9 5 OSO 1006,3 10 0,0
19.05.2019 22:00:00 16,0 8,0 16 9 SO - 10 -
19.05.2019 21:00:00 17,0 13,0 5 3 E - 10 -
19.05.2019 20:00:00 17,6 12,7 8 4 ESE 1005,0 10 -
19.05.2019 19:00:00 19,0 14,0 8 4 E - 10 -
19.05.2019 18:00:00 19,0 14,0 11 6 N - 10 -
19.05.2019 17:00:00 18,8 13,2 16 9 N 1004,2 20 0,0
19.05.2019 16:00:00 20,0 14,0 9 5 NE - 10 -
19.05.2019 15:00:00 18,0 14,0 8 4 NE - 10 -
19.05.2019 14:00:00 18,0 14,0 13 7 ENE 1003,8 15 -
19.05.2019 13:00:00 18,0 15,0 9 5 NE - 10 -
19.05.2019 12:00:00 20,0 14,0 15 8 NE - 10 -
19.05.2019 11:00:00 19,8 12,7 5 3 - 1003,5 10 0,0
19.05.2019 10:00:00 19,0 14,0 9 5 - - 10 -
19.05.2019 09:00:00 17,0 14,0 5 3 S - 10 -
19.05.2019 08:00:00 14,8 12,3 4 2 S 1004,4 25 -

tt = Temperatura
td = dewpoint
ff = velocità del vento
dd = direzione del vento
ppp = reduced air pressure
vv = visibility
rr = precipitazioni

Stazioni seguenti

WeatherPro
AMSI
MeteoEarth